Location: Eyeline Observatory
(43.2182°N, 78.8632°W)
Time: 00:36:46
(UTC-05:00)

Vanguard 2 - All Passes

Search period start: 24 January 2018 00:00
Search period end: 03 February 2018 00:00
Orbit: 553 x 2939 km, 32.9° (Epoch: 22 January)

Date Brightness Start Highest point End Pass type
(mag) Time Alt. Az. Time Alt. Az. Time Alt. Az.
24 Jan - 02:38:59 10° SW 02:44:58 32° SSE 02:54:07 10° E visible
24 Jan - 04:45:27 10° WSW 04:53:41 49° S 05:06:57 10° ESE visible
24 Jan - 06:53:30 10° W 07:03:48 42° SSW 07:18:40 10° SE visible
24 Jan - 09:03:57 10° W 09:14:19 25° SSW 09:26:46 10° SSE daylight
25 Jan - 00:52:48 10° SSE 00:55:26 13° SE 00:58:31 10° ESE night (unlit)
25 Jan - 02:56:30 10° SW 03:02:41 37° SSE 03:12:26 10° E visible
25 Jan - 05:03:21 10° WSW 05:11:39 48° S 05:24:57 10° ESE visible
25 Jan - 07:11:44 10° W 07:21:47 37° SSW 07:35:59 10° SE daylight
25 Jan - 09:23:24 10° WSW 09:32:10 19° SW 09:42:18 10° S daylight
26 Jan - 01:09:07 10° S 01:12:54 18° SE 01:17:48 10° ESE visible
26 Jan - 03:14:09 10° SW 03:20:30 41° SSE 03:30:39 10° ESE visible
26 Jan - 05:21:19 10° WSW 05:29:39 45° S 05:42:49 10° ESE visible
26 Jan - 07:30:06 10° W 07:39:47 31° SSW 07:52:58 10° SSE daylight
26 Jan - 09:44:18 10° WSW 09:49:59 13° SW 09:56:12 10° SSW daylight
27 Jan - 01:26:08 10° SSW 01:30:28 23° SSE 01:36:28 10° ESE visible
27 Jan - 03:31:55 10° WSW 03:38:22 42° S 03:48:47 10° ESE visible
27 Jan - 05:39:21 10° WSW 05:47:40 40° S 06:00:30 10° SE visible
27 Jan - 07:48:46 10° WSW 07:57:45 25° SSW 08:09:28 10° SSE daylight
28 Jan - 01:43:27 10° SW 01:48:07 28° SSE 01:54:53 10° ESE visible
28 Jan - 03:49:46 10° WSW 03:56:17 42° S 04:06:49 10° ESE visible
28 Jan - 05:57:30 10° WSW 06:05:41 35° SSW 06:17:58 10° SE visible
28 Jan - 08:07:57 10° WSW 08:15:42 19° SSW 08:25:18 10° S daylight
28 Jan - 23:58:15 10° SSE 23:58:45 10° SE 23:59:16 10° SE night (unlit)
29 Jan - 02:01:01 10° SW 02:05:52 32° SSE 02:13:07 10° ESE visible
29 Jan - 04:07:42 10° WSW 04:14:15 40° S 04:24:44 10° ESE visible
29 Jan - 06:15:48 10° WSW 06:23:41 30° SSW 06:35:05 10° SSE visible
29 Jan - 08:28:17 10° WSW 08:33:39 13° SSW 08:39:47 10° S daylight
30 Jan - 00:13:42 10° S 00:16:19 15° SSE 00:19:23 10° ESE night (unlit)
30 Jan - 02:18:42 10° SW 02:23:41 34° SSE 02:31:16 10° ESE visible
30 Jan - 04:25:41 10° WSW 04:32:14 37° S 04:42:30 10° SE visible
30 Jan - 06:34:22 10° WSW 06:41:43 24° SSW 06:51:46 10° SSE visible
31 Jan - 00:30:40 10° SSW 00:33:57 19° SSE 00:38:05 10° ESE night (unlit)
31 Jan - 02:36:30 10° WSW 02:41:33 35° S 02:49:19 10° ESE visible
31 Jan - 04:43:47 10° WSW 04:50:14 32° SSW 05:00:02 10° SE visible
31 Jan - 06:53:25 10° WSW 06:59:43 18° SSW 07:07:48 10° S visible
01 Feb - 00:48:02 10° SW 00:51:40 23° SSE 00:56:26 10° ESE night (unlit)
01 Feb - 02:54:22 10° WSW 02:59:28 34° S 03:07:15 10° ESE visible
01 Feb - 05:02:02 10° WSW 05:08:15 27° SSW 05:17:17 10° SE visible
01 Feb - 07:13:36 10° SW 07:17:44 13° SSW 07:22:31 10° S daylight
02 Feb - 01:05:36 10° SW 01:09:26 26° SSE 01:14:37 10° ESE night (unlit)
02 Feb - 03:12:20 10° WSW 03:17:25 31° S 03:25:03 10° SE visible
02 Feb - 05:20:34 10° WSW 05:26:15 21° SSW 05:34:06 10° SSE visible
02 Feb - 23:18:05 10° S 23:19:56 13° SSE 23:21:55 10° SE night (unlit)
